ESSA 1

operational
NORAD ID: 1982 Int'l Des: 1966-008 Owner: ESSA Country: US
LEOCIRCULARRETROGRADE

About ESSA 1

Description loading...

Live Position

Loading 3D Globe...

Upcoming Passes

Altitude History

Altitude vs Time

uPlot chart will show altitude changes over time

Two-Line Element Set

1 01982U 66008A 25347.62933153 .00000314 00000-0 91992-4 0 9995
2 01982 97.8375 28.1542 0078951 318.4494 41.0716 14.48245382131089
Epoch: Dec 13, 2025 • Age: 16 hours

Current Status

Altitude 748.1 km
Velocity 7.48 km/s
Sub-Earth Point -47.29°S, 10.8°E
Type other

Large Constellations

Loading constellations...